カタログに戻る

SL-14 DEB

運用中PO
NORAD 45327·DEBRIS·🇷🇺 Russia

打ち上げ Aug 15, 1991 から Plesetsk Cosmodrome

Loading…

次のパス (今後24時間)

TLE

最新Source: Space-Track

元期: Sep 14, 2026, 14:00 UTC

1 45327U 91056BR  26257.58379294  .00001194  00000-0  21050-2 0  9996
2 45327  82.5656  16.7127 0073809 344.9859  14.9085 13.41005410321516

AllMySatでSL-14 DEBをリアルタイム追跡

Download on the App Store